Torna al catalogo

STARLINK-32455

AttivoComunicazioniVLEO
NORAD 61632·PAYLOAD·🇺🇸 United States

Lanciato Oct 23, 2024 da Cape Canaveral Space Force Station

Loading…

Prossimi Passaggi (prossime 24 ore)

TLE

AggiornatoSource: CelesTrak SupGP

Epoca: Sep 14, 2026, 20:43 UTC

1 61632C 24191M   26257.86368056 -.00023609  00000+0 -85497-3 0  2573
2 61632  43.0000 169.9077 0001328 264.8762 133.2328 15.27596303    19

Traccia STARLINK-32455 in tempo reale con AllMySat

Download on the App Store